Regional Weather Roundup
Issued by NWS

Home | Current Version | Previous Version | Text Only | Print | Product List | Glossary On
Versions: 1 2 3 4 5 6 7 8 9 10 11 12 13 14 15 16 17 18 19 20 21 22 23 24 25 26 27 28 29 30 31 32 33 34 35 36 37 38 39 40 41 42 43 44 45 46 47 48 49 50
000
ASUS45 KABQ 171410
RWRNM
NEW MEXICO REGIONAL WEATHER ROUNDUP
NATIONAL WEATHER SERVICE ALBUQUERQUE NM
700 AM MST SUN DEC 17 2017

NOTE: "FAIR" MEANS FEW OR NO CLOUDS BELOW 12,000 FEET AGL WITH NO
       SIGNIFICANT WEATHER OR OBSTRUCTIONS TO VISION.

      THIS PRODUCT IS RELEASED AS TWO VERSIONS.  ONE VERSION NEAR
      THE TOP OF THE HOUR CONTAINING PRELIMINARY DATA FROM ALBUQUERQUE
      AND OTHER STATIONS.  A FINAL VERSION WITH ADDITIONAL DATA IS
      ISSUED ABOUT 10 MINUTES AFTER THE HOUR.

NMZ501-503-504-510>518-171500-
NORTHWEST PLATEAU/NORTHCENTRAL MOUNTAINS

CITY           SKY/WX    TMP DP  RH WIND       PRES   REMARKS
FARMINGTON     FAIR      25   8  48 NE7       30.00R WCI  17
LOS ALAMOS     CLOUDY    34   8  33 W7        30.00R WCI  28
SANTA FE       MOCLDY    23  15  71 N7        29.99R WCI  15
TAOS           FAIR      20   4  50 N3        30.03R
ANGEL FIRE     CLOUDY    29  -1  27 SW5       30.01R WCI  24

$$
NMZ402-403-502-505>509-171500-
WESTCENTRAL MOUNTAINS/SOUTHWEST MOUNTAINS

CITY           SKY/WX    TMP DP  RH WIND       PRES   REMARKS
GALLUP         FAIR      23   7  50 CALM      29.99S
GRANTS         FAIR      26   8  46 NW12      30.02R WCI  16
SILVER CITY    FAIR      34  23  64 N7        29.96S WCI  28

$$
NMZ407-409-411-412-171500-
SOUTHERN DESERTS

CITY           SKY/WX    TMP DP  RH WIND       PRES   REMARKS
DEMING         FAIR      37  22  54 NE8       29.94F WCI  31
LAS CRUCES     FAIR      36  26  68 E3        29.98S
HOLLOMAN AFB   FAIR      30  20  66 N7        30.00S WCI  23
ALAMOGORDO     FAIR      36  21  55 NE5       29.99R WCI  32
T OR C         FAIR      35  18  49 N5        29.98R WCI  31

$$
NMZ519>523-171500-
CENTRAL VALLEYS/CENTRAL HIGHLANDS

CITY           SKY/WX    TMP DP  RH WIND       PRES   REMARKS
ALBUQUERQUE    MOCLDY    32  17  54 N9        30.00R WCI  24
DOUBLE EAGLE   MOCLDY    21   9  58 NW3       30.00R
MORIARTY ARPT  CLOUDY    25  10  52 N3        29.99F
CLINES CORNERS FAIR      32   8  36 NW16      29.97R WCI  21
BELEN          FAIR      25  13  60 W5        29.99S WCI  19
SOCORRO        FAIR      28  15  59 CALM      30.01R

$$
NMZ524>526-539-540-171500-
SOUTHCENTRAL MOUNTAINS

CITY           SKY/WX    TMP DP  RH WIND       PRES   REMARKS
RUIDOSO        FAIR      37  14  38 CALM      30.02R

$$
NMZ527>531-171500-
NORTHEAST HIGHLANDS/NORTHEAST PLAINS

CITY           SKY/WX    TMP DP  RH WIND       PRES   REMARKS
LAS VEGAS      FAIR      23  10  57 NE6       29.94S WCI  16
RATON          FAIR      24  16  71 E8        29.96R WCI  15
CLAYTON        FAIR      28  22  78 NW14      29.96R WCI  17

$$
NMZ532>537-171500-
EASTCENTRAL PLAINS

CITY           SKY/WX    TMP DP  RH WIND       PRES   REMARKS
SANTA ROSA     FAIR      28  13  53 E6        29.94S WCI  22
TUCUMCARI      FAIR      24  15  68 W7        29.95R WCI  16
CANNON AFB     FAIR      28  18  66 CALM      29.99R
CLOVIS AIRPORT FAIR      24  16  71 N6        29.98S WCI  17

$$
NMZ028-029-538-171500-
SOUTHEAST PLAINS

CITY           SKY/WX    TMP DP  RH WIND       PRES   REMARKS
ROSWELL        FAIR      30  17  58 NW9       29.97R WCI  22
ARTESIA        FAIR      34  18  51 NW9       29.96R WCI  26
CARLSBAD       FAIR      35  29  78 N9        29.94S WCI  28
HOBBS          CLEAR     28  25  86 VRB6      29.98R WCI  22


$$




USA.gov is the U.S. government's official web portal to all federal, state and local government web resources and services.